ROMMA est une association bénévole à but non lucratif. Votre soutien est indispensable : ADHERER à ROMMA ou FAIRE un DON

Chambon - (38, Isère)

Oisans (2460 m)   Longitude: 06° 10' 42" E   Latitude: 45° 01' 32" N Station partenaire n°803
 

Détail journalier du     <<     >>

Température Humidité Vent Dir Rafale Dir. rafale Neige 1 Neige 2
Heure (°C) (%) (km/h) (km/h) (cm) (cm)
01:00 -0.610024SO52SO013
02:00 -0.710024SSO47SO016
03:00 -0.710022SSO43SSO018
04:00 -0.910015SSO37SSO018
05:00 -1.31008SSO28SSO017
06:00 -0.510020SSO54SSO020
07:00 -0.410027S68S020
08:00 -0.310035S84SSO020
09:00 -0.210037SSO76SSO021
10:00 0.110028S69S019
11:00 0.210025SSO52SSO019
12:00 -0.410030SSO107SO018
13:00 -2.510039SO93SO024
14:00 -2.59938SO61SO025
15:00 -2.59930SSO54SSO025
16:00 -2.79925SO43SO025
17:00 -2.910034SO66OSO025
18:00 -3.39932OSO59OSO026
19:00 -4.39924OSO50OSO027
20:00 -5.09916SO44SO028
21:00 -4.0999SSO23SSO027
22:00 -3.99915SSO34SO028
23:00 -3.89914SSO31SO029
minuit -3.610016SSO32SO028

Graphique du 03-11-2019

 

Serveur OMMA